THOR ABLESTAR DEB *, 13502

Orbit data source: Space-Track

THOR ABLESTAR DEB *, 13502 is space debris in LEO originally from a launch on Thu, 29 Jun 1961 UTC launched from the Air Force Eastern Test Range (AFETR). Debris objects in space refer to the collection of defunct objects orbiting the Earth. Examples of debris include non-operational satellites, rocket bodies, and fragments generated from explosions, collisions, or faulty payload assembly.

Loading next visibility...
Identifier
13502, 1961-015KT
Orbit
LEO
Country
Flag of USUS
Related business
Manufacturer
Unknown
Mission
Spacecraft
Bus & Motor
Unknown
Mass
Unknown
Launch date (UTC)
1961-06-29 (65 years ago)
Launch vehicle
Unknown
Launch site
Air Force Eastern Test Range (AFETR)
Object type
Payload
Rocket body
Debris
Shape & HBR
Unknown shape, 0.1 m
Radar Cross Section
Small (<0.1 m²)

Expand to show TLE details & history
Last TLE update: 1 day ago

TLE from 1 day ago
0 THOR ABLESTAR DEB *
1 13502U 61015KT  26033.41208424  .00006143  00000-0  50731-2 0  9995
2 13502  66.4440 141.3224 0253034 315.7971 119.5144 13.75855841132226
Epoch: 2026-02-02T09:53Z
TLE epoch observation values (Epoch: 2026-02-02T09:53:24.078Z)
Latitude
63.74156°
Longitude
-78.08722°
Altitude
1,083.947 km
Speed
7.269 km/s
True Right ascension
13h 31m 29s
True Declination
63° 36' 39"
Sunlit
Object was in daylight at epoch
Visualization orbit readout
Latitude
Unknown
Longitude
Unknown
Altitude
Unknown
Speed
Unknown
Apparent Right ascension
Unknown
Apparent Declination
Unknown
Sunlit
N/A
Visualization observer readout
Local Sidereal Time
11:43:08
Azimuth
Unknown
Elevation
Unknown
Doppler factor
Unknown
Orbital elements
Apogee altitude
1,163.178 km
Perigee altitude
790.955 km
Semi-major axis
7,355.204 km
Eccentricity
0.0253
Inclination
66.444°
RAAN
141.3224°
Arg. of periapsis
315.7971°
True anomaly
121.99817°
Mean anomaly
119.5144°
Eccentric anomaly
120.76022°
Mean motion
3.44073 °/min
Orbital period
104.63 mins
BSTAR
0.0050731

Documentation

Showing up to 5 results
|